This is the latest recevied weather packets stored in our database for station/object AG7BI. If no packets are shown the sender has not sent any weather packets the latest 1 day(s).
| Time | Temp. | Humidity | Pressure | Rain* | Wind** | Luminosity | Snow |
|---|---|---|---|---|---|---|---|
| 1778015752 | 15.56° C | 73% | 1016.5 hPa | 0 mm | 0 m/s | - | - |
| 1778015452 | 15.56° C | 72% | 1016.5 hPa | 0 mm | 1.34 m/s, 104° | - | - |
| 1778015152 | 15.56° C | 72% | 1016.2 hPa | 0 mm | 0.89 m/s, 126° | - | - |
| 1778014852 | 16.11° C | 74% | 1016.2 hPa | 0 mm | 0.89 m/s, 109° | - | - |
| 1778014552 | 15.56° C | 74% | 1016.1 hPa | 0 mm | 0.89 m/s, 200° | - | - |
| 1778013952 | 16.11° C | 74% | 1016.2 hPa | 0 mm | 0.89 m/s, 111° | - | - |
| 1778013652 | 16.11° C | 72% | 1016.4 hPa | 0 mm | 0.89 m/s, 165° | - | - |
| 1778013352 | 16.11° C | 76% | 1016.4 hPa | 0 mm | 0.89 m/s, 117° | - | - |
| 1778013052 | 15.56° C | 74% | 1016.7 hPa | 0 mm | 0.45 m/s, 168° | - | - |
| 1778012752 | 15.56° C | 72% | 1016.5 hPa | 0 mm | 0.45 m/s, 202° | - | - |
| 1778012452 | 15.56° C | 74% | 1016.6 hPa | 0 mm | 0.89 m/s, 151° | - | - |
| 1778012152 | 15.56° C | 74% | 1016.7 hPa | 0 mm | 0.45 m/s, 142° | - | - |
| 1778011852 | 15.56° C | 77% | 1016.8 hPa | 0 mm | 0.45 m/s, 148° | - | - |
| 1778011552 | 15° C | 77% | 1016.7 hPa | 0 mm | 0.45 m/s, 122° | - | - |
| 1778011252 | 15° C | 73% | 1016.7 hPa | 0 mm | 0.89 m/s, 115° | - | - |
| 1778010952 | 15° C | 74% | 1016.7 hPa | 0 mm | 0.45 m/s, 134° | - | - |
| 1778010652 | 15.56° C | 73% | 1016.7 hPa | 0 mm | 1.34 m/s, 110° | - | - |
| 1778010352 | 15.56° C | 73% | 1016.7 hPa | 0 mm | 0.89 m/s, 149° | - | - |
| 1778010052 | 15° C | 75% | 1016.6 hPa | 0 mm | 0.45 m/s, 141° | - | - |
| 1778009752 | 15.56° C | 76% | 1016.6 hPa | 0 mm | 0.89 m/s, 110° | - | - |
| 1778009452 | 15° C | 76% | 1016.8 hPa | 0 mm | 0.45 m/s, 161° | - | - |
| 1778009152 | 15° C | 74% | 1016.6 hPa | 0 mm | 0.89 m/s, 146° | - | - |
| 1778008852 | 15° C | 76% | 1016.7 hPa | 0 mm | 0.89 m/s, 154° | - | - |
| 1778008552 | 14.44° C | 76% | 1016.5 hPa | 0 mm | 0.45 m/s, 146° | - | - |
| 1778008252 | 14.44° C | 75% | 1016.4 hPa | 0 mm | 0.45 m/s, 158° | - | - |
* Rain latest hour (hover to see other rain measurements)
** Current wind speed in m/s (hover to see current wind gust speed)